• In Austria
  • List of Countries
  • For 7 days
  • Water Temperature
  • Satellite Maps
  • Weather Map
  • News
  • Weather Widgets
  • user-avatar
    Login

    Hourly Weather Lubumbashi

    Today, 24 June, Sunday

    Time Temperature Precipitation Wind Pressure Humidity
    00:00 +35°C° 0.2 mm 4 mps 719 mmHg 39%
    01:00 +35°C° 0.2 mm 4 mps 719 mmHg 40%
    02:00 +35°C° 0 mm 4 mps 719 mmHg 38%
    03:00 +34°C° 0 mm 4 mps 719 mmHg 39%
    04:00 +34°C° 0 mm 4 mps 719 mmHg 40%
    05:00 +34°C° 0 mm 4 mps 719 mmHg 41%
    06:00 +34°C° 0 mm 4 mps 719 mmHg 41%
    07:00 +34°C° 0 mm 5 mps 720 mmHg 41%
    08:00 +34°C° 0 mm 6 mps 720 mmHg 42%
    09:00 +35°C° 0 mm 6 mps 720 mmHg 40%
    10:00 +36°C° 0 mm 6 mps 720 mmHg 37%
    11:00 +38°C° 0 mm 6 mps 721 mmHg 35%
    12:00 +39°C° 0 mm 5 mps 720 mmHg 34%
    13:00 +39°C° 0 mm 5 mps 719 mmHg 32%
    14:00 +39°C° 0 mm 5 mps 719 mmHg 34%
    15:00 +38°C° 0 mm 4 mps 719 mmHg 34%
    16:00 +38°C° 0 mm 4 mps 719 mmHg 33%
    17:00 +38°C° 0 mm 4 mps 718 mmHg 33%
    18:00 +38°C° 0 mm 4 mps 719 mmHg 34%
    19:00 +37°C° 0 mm 4 mps 719 mmHg 34%
    20:00 +37°C° 0 mm 4 mps 719 mmHg 35%
    21:00 +36°C° 0.4 mm 4 mps 719 mmHg 36%
    22:00 +36°C° 0.4 mm 4 mps 719 mmHg 38%
    23:00 +35°C° 0.4 mm 4 mps 719 mmHg 39%

    Tomorrow, 25 June, Monday

    Time Temperature Precipitation Wind Pressure Humidity
    00:00 +35°C° 0.2 mm 4 mps 719 mmHg 40%
    01:00 +34°C° 0.2 mm 4 mps 719 mmHg 41%
    02:00 +34°C° 0.2 mm 4 mps 718 mmHg 42%
    03:00 +34°C° 0.2 mm 4 mps 718 mmHg 43%
    04:00 +33°C° 0.2 mm 4 mps 718 mmHg 44%
    05:00 +33°C° 0.2 mm 4 mps 718 mmHg 45%
    06:00 +33°C° 0 mm 5 mps 718 mmHg 45%
    07:00 +33°C° 0 mm 5 mps 719 mmHg 45%
    08:00 +34°C° 0 mm 6 mps 719 mmHg 45%
    09:00 +35°C° 0 mm 6 mps 719 mmHg 41%
    10:00 +36°C° 0 mm 5 mps 719 mmHg 37%
    11:00 +39°C° 0 mm 5 mps 720 mmHg 34%
    12:00 +38°C° 0 mm 4 mps 719 mmHg 32%
    13:00 +39°C° 0 mm 3 mps 719 mmHg 30%
    14:00 +40°C° 0 mm 2 mps 718 mmHg 28%
    15:00 +40°C° 0 mm 2 mps 718 mmHg 28%
    16:00 +40°C° 0 mm 2 mps 717 mmHg 27%
    17:00 +40°C° 0 mm 2 mps 717 mmHg 27%
    18:00 +39°C° 0 mm 2 mps 717 mmHg 29%
    19:00 +39°C° 0 mm 2 mps 717 mmHg 30%
    20:00 +38°C° 0 mm 3 mps 717 mmHg 32%
    21:00 +37°C° 0 mm 4 mps 718 mmHg 36%
    22:00 +36°C° 0 mm 5 mps 718 mmHg 40%
    23:00 +34°C° 0 mm 7 mps 718 mmHg 44%

    Day after tomorrow, 26 June, Tuesday

    Time Temperature Precipitation Wind Pressure Humidity
    00:00 +34°C° 0 mm 6 mps 718 mmHg 45%
    01:00 +33°C° 0 mm 6 mps 718 mmHg 47%
    02:00 +33°C° 0 mm 6 mps 718 mmHg 48%
    03:00 +32°C° 0 mm 6 mps 718 mmHg 50%
    04:00 +32°C° 0 mm 5 mps 718 mmHg 53%
    05:00 +32°C° 0 mm 5 mps 718 mmHg 55%
    06:00 +32°C° 0 mm 4 mps 718 mmHg 54%
    07:00 +31°C° 0 mm 3 mps 719 mmHg 54%
    08:00 +31°C° 0 mm 3 mps 719 mmHg 54%
    09:00 +33°C° 0 mm 3 mps 719 mmHg 50%
    10:00 +34°C° 0 mm 3 mps 720 mmHg 46%
    11:00 +35°C° 0 mm 3 mps 720 mmHg 42%
    12:00 +36°C° 0 mm 3 mps 719 mmHg 39%
    13:00 +37°C° 0 mm 2 mps 719 mmHg 35%
    14:00 +38°C° 0 mm 2 mps 718 mmHg 32%
    15:00 +38°C° 0.1 mm 2 mps 718 mmHg 31%
    16:00 +39°C° 0.1 mm 2 mps 717 mmHg 31%
    17:00 +39°C° 0.1 mm 2 mps 717 mmHg 30%
    18:00 +38°C° 0.2 mm 2 mps 717 mmHg 32%
    19:00 +38°C° 0.2 mm 2 mps 717 mmHg 33%
    20:00 +37°C° 0.2 mm 2 mps 718 mmHg 35%
    21:00 +36°C° 0 mm 4 mps 718 mmHg 40%
    22:00 +35°C° 0 mm 5 mps 718 mmHg 44%
    23:00 +34°C° 0 mm 6 mps 718 mmHg 49%

    27 June, Wednesday

    Time Temperature Precipitation Wind Pressure Humidity
    00:00 +33°C° 0 mm 6 mps 718 mmHg 50%
    01:00 +33°C° 0 mm 5 mps 718 mmHg 51%
    02:00 +33°C° 0 mm 5 mps 718 mmHg 52%
    03:00 +32°C° 0 mm 5 mps 718 mmHg 54%
    04:00 +32°C° 0 mm 5 mps 718 mmHg 56%
    05:00 +30°C° 0 mm 5 mps 718 mmHg 58%
    06:00 +30°C° 0 mm 5 mps 719 mmHg 58%
    07:00 +32°C° 0 mm 5 mps 719 mmHg 57%
    08:00 +32°C° 0 mm 5 mps 720 mmHg 57%
    09:00 +33°C° 0 mm 5 mps 720 mmHg 52%
    10:00 +34°C° 0 mm 5 mps 721 mmHg 48%
    11:00 +35°C° 0 mm 5 mps 721 mmHg 43%
    12:00 +36°C° 0 mm 5 mps 720 mmHg 41%
    13:00 +36°C° 0 mm 4 mps 720 mmHg 40%
    14:00 +37°C° 0 mm 4 mps 719 mmHg 38%
    15:00 +37°C° 0 mm 5 mps 719 mmHg 37%
    16:00 +37°C° 0 mm 5 mps 718 mmHg 37%
    17:00 +37°C° 0 mm 5 mps 718 mmHg 37%
    18:00 +36°C° 0.1 mm 5 mps 718 mmHg 40%
    19:00 +35°C° 0.1 mm 5 mps 718 mmHg 43%
    20:00 +34°C° 0.1 mm 6 mps 718 mmHg 47%
    21:00 +34°C° 0.2 mm 5 mps 718 mmHg 48%
    22:00 +33°C° 0.2 mm 5 mps 719 mmHg 49%
    23:00 +33°C° 0.2 mm 5 mps 719 mmHg 50%

    28 June, Thursday

    Time Temperature Precipitation Wind Pressure Humidity
    00:00 +33°C° 0.2 mm 5 mps 719 mmHg 51%
    01:00 +32°C° 0.2 mm 5 mps 719 mmHg 52%
    02:00 +32°C° 0.2 mm 5 mps 718 mmHg 53%
    03:00 +32°C° 0.2 mm 5 mps 719 mmHg 54%
    04:00 +30°C° 0.2 mm 5 mps 719 mmHg 56%
    05:00 +30°C° 0.2 mm 5 mps 719 mmHg 57%
    06:00 +30°C° 0 mm 5 mps 719 mmHg 57%
    07:00 +30°C° 0 mm 4 mps 720 mmHg 56%
    08:00 +30°C° 0 mm 3 mps 720 mmHg 56%
    09:00 +33°C° 0 mm 3 mps 720 mmHg 52%
    10:00 +34°C° 0 mm 3 mps 720 mmHg 48%
    11:00 +35°C° 0 mm 3 mps 720 mmHg 44%
    12:00 +36°C° 0 mm 3 mps 720 mmHg 41%
    13:00 +36°C° 0 mm 2 mps 719 mmHg 38%
    14:00 +37°C° 0 mm 2 mps 718 mmHg 35%
    15:00 +37°C° 0 mm 2 mps 718 mmHg 34%
    16:00 +37°C° 0 mm 2 mps 718 mmHg 34%
    17:00 +36°C° 0 mm 1 mps 718 mmHg 34%
    18:00 +37°C° 0 mm 2 mps 718 mmHg 35%
    19:00 +36°C° 0 mm 2 mps 719 mmHg 36%
    20:00 +36°C° 0 mm 3 mps 719 mmHg 37%
    21:00 +35°C° 0.1 mm 4 mps 719 mmHg 44%
    22:00 +33°C° 0.1 mm 5 mps 719 mmHg 50%
    23:00 +32°C° 0.1 mm 6 mps 719 mmHg 57%

    29 June, Friday

    Time Temperature Precipitation Wind Pressure Humidity
    00:00 +30°C° 0.3 mm 5 mps 719 mmHg 58%
    01:00 +30°C° 0.3 mm 5 mps 718 mmHg 60%
    02:00 +29°C° 0.3 mm 4 mps 718 mmHg 62%
    03:00 +29°C° 0 mm 4 mps 718 mmHg 62%
    04:00 +29°C° 0 mm 4 mps 718 mmHg 62%
    05:00 +29°C° 0 mm 4 mps 718 mmHg 62%
    06:00 +30°C° 0.2 mm 4 mps 719 mmHg 60%
    07:00 +30°C° 0.2 mm 4 mps 719 mmHg 59%
    08:00 +30°C° 0.2 mm 4 mps 720 mmHg 58%
    09:00 +33°C° 0 mm 4 mps 720 mmHg 53%
    10:00 +34°C° 0 mm 4 mps 720 mmHg 48%
    11:00 +35°C° 0 mm 4 mps 720 mmHg 43%
    12:00 +36°C° 0 mm 4 mps 719 mmHg 40%
    13:00 +37°C° 0 mm 3 mps 718 mmHg 37%
    14:00 +38°C° 0 mm 3 mps 717 mmHg 34%
    15:00 +38°C° 0 mm 3 mps 717 mmHg 33%
    16:00 +38°C° 0 mm 3 mps 717 mmHg 33%
    17:00 +38°C° 0 mm 3 mps 717 mmHg 32%
    18:00 +37°C° 0.1 mm 3 mps 717 mmHg 35%
    19:00 +36°C° 0.1 mm 4 mps 717 mmHg 37%
    20:00 +36°C° 0.1 mm 5 mps 718 mmHg 39%
    21:00 +35°C° 0.4 mm 5 mps 718 mmHg 43%
    22:00 +34°C° 0.4 mm 5 mps 718 mmHg 46%
    23:00 +33°C° 0.4 mm 5 mps 718 mmHg 50%
    Show more